Home   Weather   Borken   Past weeks

Flag for Germany Past Weather in Borken, North Rhine-Westphalia, Germany — Yesterday and Last 2 Weeks

Now
51 °F

Passing clouds.


Feels Like: 51 °F
Forecast: 55 / 72 °F
Wind: 1 mph from Southeast

Location: Twenthe

Current Time: Aug 31, 2016 at 4:27:03 AM

Latest Report: Aug 31, 2016 at 3:00 AM


Visibility: 13 mi

Pressure: 30.21 "Hg

Humidity: 98%

Dew Point: 51 °F

Location of BorkenLocation

Past Weather in Borken — Graph

°F

Borken Temperature Yesterday

Maximum temperature yesterday: 73 °F (at 6:00 PM)
Minimum temperature yesterday: 45 °F (at 7:00 AM)
Average temperature yesterday: 57 °F

High & Low Weather Summary for the Past Weeks

 TemperatureHumidityPressure
High90 °F (Aug 25, 4:00 PM)100% (Aug 16, 5:00 AM)30.33 "Hg (Aug 16, 5:00 AM)
Low45 °F (Aug 30, 7:00 AM)32% (Aug 25, 5:00 PM)29.78 "Hg (Aug 19, 6:00 PM)
Average66 °F76%30.04 "Hg
* Reported Aug 16 3:00 AM — Aug 31 3:00 AM, Borken, Weather by CustomWeather, © 2016

Note: Actual official high and low records may vary slightly from our data, if they occured in-between our weather recording intervals... More about our weather records

Advertising

Borken Weather History for the Previous 24 Hours

Scroll right to see more
 ConditionsComfort  
Time TempWeatherWind HumidityBarometerVisibility
3:00 AM
Wed, Aug 31
51 °FPassing clouds.1 mph98%30.21 "Hg12 mi
2:00 AM51 °FOvercast.No wind99%30.22 "Hg18 mi
1:00 AM50 °FPassing clouds.No wind99%30.23 "Hg1 mi
12:00 AM54 °FClear.No wind100%30.24 "Hg22 mi
11:00 PM
Tue, Aug 30
54 °FClear.2 mph98%30.25 "Hg25 mi
10:00 PM56 °FClear.No wind95%30.25 "Hg28 mi
9:00 PM58 °FClear.No wind90%30.26 "Hg17 mi
8:00 PM66 °FSunny.1 mph70%30.25 "Hg28 mi
6:00 PM73 °FSunny.1 mph48%30.27 "Hg25 mi
3:00 PM72 °FPassing clouds.1 mph50%30.30 "Hg25 mi
2:00 PM72 °FPartly sunny.N/A49%30.31 "Hg19 mi
1:00 PM69 °FPartly sunny.1 mph58%30.32 "Hg17 mi
12:00 PM67 °FPassing clouds.1 mph62%30.33 "Hg22 mi
11:00 AM65 °FSunny.2 mph69%30.33 "Hg19 mi
10:00 AM63 °FPassing clouds.2 mph75%30.32 "Hg18 mi
9:00 AM57 °FSunny.1 mph94%30.31 "Hg8 mi
8:00 AM49 °FSunny.No wind100%30.30 "Hg1 mi
7:00 AM45 °FSunny.1 mph99%30.29 "Hg0 mi
6:00 AM45 °FClear.No wind100%30.29 "Hg0 mi
5:00 AM46 °FPassing clouds.No wind100%30.29 "Hg0 mi
4:00 AM47 °FClear.No wind100%30.28 "Hg0 mi
Weather by CustomWeather, © 2016

See weather overviewHow to use our weather pages